Regional Weather Roundup
Issued by NWS

Home | Current Version | Previous Version | Graphics & Text | Print | Product List | Glossary On
Versions: 1 2 3 4 5 6 7 8 9 10 11 12 13 14 15 16 17 18 19 20 21 22 23 24 25 26 27 28 29 30 31 32 33 34 35 36 37 38 39 40 41 42 43 44 45 46 47 48 49 50
000
ASUS45 KBOU 261107
RWRCO

WEATHER ROUNDUP FOR COLORADO
NATIONAL WEATHER SERVICE DENVER/BOULDER CO
400 AM MST MON JAN 26 2015

NOTE: "FAIR" INDICATES FEW OR NO CLOUDS BELOW 12000 FEET WITH NO
SIGNIFICANT WEATHER AND/OR OBSTRUCTIONS TO VISIBILITY.

COZ001>005-013-030-031-261200-
...NORTHWEST COLORADO...

CITY           SKY/WX    TMP DP  RH WIND       PRES   REMARKS
CRAIG          PTCLDY    13  11  92 W3        30.43R
HAYDEN         PTCLDY    25  19  80 E15       30.41S WCI  12
MEEKER         PTCLDY    17  14  88 NE3       30.43R
MOUNT WERNER   NOT AVBL
STEAMBOAT SPGS PTCLDY    18  16  95 CALM      30.43F
WALDEN         PTCLDY    18  14  86 SE6       30.42S WCI   9
$$

COZ006>008-011-261200-
...WEST CENTRAL VALLEYS...

CITY           SKY/WX    TMP DP  RH WIND       PRES   REMARKS
GRAND JUNCTION PTCLDY    25  22  88 E5        30.39R WCI  19
MONTROSE       PTCLDY    24  19  81 SE9       30.42S WCI  14
EAGLE          PTCLDY    19  18  93 E5        30.50R WCI  13
RIFLE          PTCLDY    27  21  78 CALM      30.42R
DELTA          PTCLDY    25  20  82 E6        30.41F WCI  18
NUCLA          PTCLDY    30  23  74 SE6       30.41S WCI  24
$$

COZ017>023-064>068-261200-
...SOUTHWEST COLORADO...

CITY           SKY/WX    TMP DP  RH WIND       PRES   REMARKS
DURANGO        CLEAR     24  19  81 CALM      30.38R
CORTEZ         CLEAR     22  19  89 NE6       30.37F WCI  14
PAGOSA SPRINGS CLEAR     24  16  70 CALM      30.41F
TELLURIDE      PTCLDY    34  17  49 E5        30.44F WCI  30
WOLF CREEK PAS NOT AVBL
$$

COZ009-010-012-014-032>034-037-058>063-261200-
...CENTRAL COLORADO...

CITY           SKY/WX    TMP DP  RH WIND       PRES   REMARKS
ASPEN          CLEAR     20  15  81 CALM      30.41S
BUENA VISTA    CLEAR     31  20  63 SE5       30.40R WCI  27
COPPER MTN     PTCLDY    34  14  44 SW3       30.53R
BERTHOUD PASS  FAIR      19  14  79 NW20      30.50S WCI   4
COTTONWOOD PAS CLEAR     45   9  23 W9        30.44S
GUNNISON       PTCLDY     0  -8  71 CALM      30.52R
KREMMLING      CLOUDY    12   9  85 CALM      30.51R FOG
LEADVILLE      CLEAR     18  12  77 NE10      30.45S WCI   6
MONARCH PASS   PTCLDY    30  12  47 SW5       30.62R WCI  25
SALIDA         CLEAR     29  21  71 CALM      30.47S
SUNLIGHT       PTCLDY    32  21  64 CALM        N/A
WILKERSON PASS PTCLDY    36  10  35 N17G28    30.48S
$$

COZ069>075-261200-
...SAN LUIS VALLEY/SANGRE DE CRISTO MOUNTAINS...

CITY           SKY/WX    TMP DP  RH WIND       PRES   REMARKS
ALAMOSA        PTCLDY    11   8  88 CALM      30.40S
LA VETA PASS   NOT AVBL
SAGUACHE       PTCLDY    28  19  69 N16       30.41S WCI  17
$$

COZ035-036-038>040-261200-
...NORTHERN COLORADO FRONT RANGE...

CITY           SKY/WX    TMP DP  RH WIND       PRES   REMARKS
DENVER INTL AP PTCLDY    42  24  49 S10       30.20S
DMNS CITY PARK   N/A     39  22  51 S8        30.20S
AURORA         PTCLDY    41  24  50 S12       30.22S
FRONT RANGE AP NOT AVBL
ERIE MUNI ARPT PTCLDY    32  26  80 CALM      30.19S
BOULDER MUN AP PTCLDY    41  23  48 CALM      30.18S
CENTENNIAL     CLEAR     37  24  59 S8        30.22F
BROOMFIELD     PTCLDY    45  21  39 S3        30.20F
FORT COLLINS   MOCLDY    30  25  80 S7        30.20S WCI  23
LONGMONT       MOCLDY    32  25  74 SW3       30.21S
$$

COZ041-046-047-076>085-087-088-261200-
...PIKES PEAK/PALMER DIVIDE AND SOUTHERN FOOTHILLS...

CITY           SKY/WX    TMP DP  RH WIND       PRES   REMARKS
COLO. SPRINGS  PTCLDY    37  23  56 N10       30.26S
A. F. ACADEMY  CLEAR     28  21  77 N12       30.26F WCI  18
ELLICOTT       CLEAR    N/A N/A N/A N7        30.25S
FALCON         CLEAR     37  21  52 NW9       30.28S
FORT CARSON    CLEAR     36  23  59 NW10      30.24S
LIMON          PTCLDY    35  26  69 W8        30.21S WCI  29
MONUMENT HILL  PTCLDY    37  21  52 SW7       30.27S
TRINIDAD       PTCLDY    37  23  56 W15       30.27S
$$

COZ042>045-048>051-090-091-261200-
...NORTHEAST COLORADO...

CITY           SKY/WX    TMP DP  RH WIND       PRES   REMARKS
GREELEY ARPT   MOCLDY    30  21  69 CALM      30.18S
AKRON          PTCLDY    37  28  70 W20       30.15R
BURLINGTON     CLEAR     34  28  79 W9        30.14S WCI  27
WRAY           PTCLDY    43  31  62 W15       30.10S
STERLING       PTCLDY    46  32  57 NW15      30.12R
HOLYOKE        PTCLDY    45  30  57 NW14      30.09S
FORT MORGAN    PTCLDY    34  28  76 W9        30.17F WCI  27
$$

COZ086-089-092>099-261200-
...SOUTHEAST COLORADO...

CITY           SKY/WX    TMP DP  RH WIND       PRES   REMARKS
PUEBLO         CLEAR     25  23  92 CALM      30.23S
LA JUNTA       CLEAR     35  28  75 W16       30.20S WCI  25
LAMAR          CLEAR     32  28  85 W9        30.18R WCI  24
SPRINGFIELD      N/A     36  27  69 W13       30.18F
$$


USA.gov is the U.S. government's official web portal to all federal, state and local government web resources and services.